Regional Weather Roundup
Issued by NWS

Home | Current Version | Previous Version | Graphics & Text | Print | Product List | Glossary On
Versions: 1 2 3 4 5 6 7 8 9 10 11 12 13 14 15 16 17 18 19 20 21 22 23 24 25 26 27 28 29 30 31 32 33 34 35 36 37 38 39 40 41 42 43 44 45 46 47 48 49 50
589
ASUS43 KMPX 152301
RWRMN
WEATHER ROUNDUP FOR MINNESOTA
NATIONAL WEATHER SERVICE TWIN CITIES/CHANHASSEN MN
500 PM CST FRI DEC 15 2017


NOTE: "FAIR" INDICATES FEW OR NO CLOUDS BELOW 12,000 FEET WITH NO
SIGNIFICANT WEATHER AND/OR OBSTRUCTIONS TO VISIBILITY. N/A MEANS
CURRENT SKY AND/OR WEATHER CONDITIONS ARE NOT AVAILABLE.

MNZ060>063-068>070-160000-
   Twin Cities Metro

CITY           SKY/WX    TMP DP  RH WIND       PRES   REMARKS
TWIN CITIES    CLOUDY    28  22  78 SE7       29.78F WCI  21
ST PAUL        CLOUDY    26  20  77 SE6       29.79F WCI  19
CRYSTAL        CLOUDY    26  17  68 E3        29.76F
BLAINE         CLOUDY    27  19  74 CALM      29.77S
LAKEVILLE        N/A     27  25  93 CALM      29.78S
EDEN PRAIRIE   CLOUDY    28  24  85 SE3       29.76F
SOUTH ST PAUL  CLOUDY    27  20  75 S3        29.78F
LAKE ELMO      CLOUDY    27  19  74 CALM      29.78F
$$
MNZ001>005-007-008-013>017-022>024-027-028-160000-
   Northwest Minnesota

CITY           SKY/WX    TMP DP  RH WIND       PRES   REMARKS
BEMIDJI        CLOUDY    14   9  81 E6        29.69F WCI   5
HALLOCK        LGT SNOW  18  16  93 E10       29.68R WCI   6
ROSEAU         FLURRIES  14   9  79 E10       29.72S WCI   1
WARROAD        FLURRIES  10   7  85 E8        29.73F WCI  -1
THIEF RVR FALL LGT SNOW  18  14  86 SE9       29.68S FOG     WCI   6
CROOKSTON      LGT SNOW  21  18  86 SE10      29.68F WCI  10
FOSSTON        LGT SNOW  18  12  79 SE5       29.68S WCI  11
DETROIT LAKES  CLOUDY    23  21  93 SE7       29.67F WCI  15
MOORHEAD       LGT RAIN  27  25  93 SE8       29.66F WCI  18
PARK RAPIDS    LGT SNOW  18  13  80 SE6       29.68F WCI  10
MAHNOMEN       FLURRIES  21  17  86 SE5       29.66F WCI  14
$$
MNZ006-009>011-018-025>026-160000-
   North Central Minnesota

CITY           SKY/WX    TMP DP  RH WIND       PRES   REMARKS
BAUDETTE       FLURRIES  10   5  80 E8        29.73S WCI  -2
FLAG ISLAND    FLURRIES   7   3  85 E5        29.74F WCI  -2
INTL FALLS     CLOUDY     7   1  76 NE6       29.75F WCI  -3
WASKISH        FLURRIES  12   9  85 E3        29.72F
BIG FORK       CLOUDY    12   7  79 CALM      29.72S
LONGVILLE      CLOUDY    18  10  73 CALM      29.71S
GRAND RAPIDS   FLURRIES  14   7  73 CALM      29.74S
CRANE LAKE     CLOUDY     0  -2  92 CALM      29.78R
ORR            CLOUDY     9   1  72 CALM      29.71R
COOK           CLOUDY    10   3  72 CALM      29.74R
WALKER         CLOUDY    15   9  78 CALM      29.70F
$$
MNZ012-019>021-037-160000-
   Northeast Minnesota

CITY           SKY/WX    TMP DP  RH WIND       PRES   REMARKS
DULUTH         CLOUDY    11   4  73 NE3       29.73S
ELY            CLOUDY     1  -2  85 CALM      29.73S
HIBBING        CLOUDY    10   3  73 CALM      29.73S
EVELETH        CLOUDY    10   2  71 CALM      29.74R
DULUTH HARBOR  CLOUDY    18   9  68 CALM      29.80S
TWO HARBORS    CLOUDY    10   1  67 CALM      29.75R
SILVER BAY     CLEAR      7   3  85 CALM      29.75S
GRAND MARAIS     N/A      6  -1  73 NW3       29.82R
G MARAIS ARPRT CLEAR      0  -8  71 CALM      29.70S
$$
MNZ029>031-032-039>041-046>048-054>057-064-160000-
   West Central Minnesota

CITY           SKY/WX    TMP DP  RH WIND       PRES   REMARKS
FERGUS FALLS   LGT SNOW  27  27 100 S10       29.70F WCI  17
WHEATON        CLOUDY    30  28  93 SE9       29.68F WCI  22
MORRIS         CLOUDY    30  28  93 SE7       29.67F WCI  23
ALEXANDRIA     CLOUDY    27  23  85 SE7       29.69F WCI  19
ELBOW LAKE     CLOUDY    28  27  96 E9        29.68F FOG     WCI  19
WADENA         FLURRIES  21  18  86 SE3       29.68F
GLENWOOD       CLOUDY    28  27  93 SE6       29.69F WCI  22
APPLETON         N/A     34  30  86 E6        29.68S WCI  29
BENSON         CLOUDY    32  28  86 SE6       29.70F WCI  26
ORTONVILLE     CLOUDY    34  28  80 SE6       29.67S WCI  29
MADISON        CLOUDY    37  30  75 SE5       29.68S
WILLMAR        CLOUDY    32  30  93 SE7       29.71F WCI  26
$$
MNZ033>034-036-042>043-049>051-058-059-160000-
   Central Minnesota

CITY           SKY/WX    TMP DP  RH WIND       PRES   REMARKS
ST CLOUD       CLOUDY    24  19  81 SE7       29.73F WCI  16
SAUK CENTRE    CLOUDY    26  22  84 SE3       29.71F
PAYNESVILLE    CLOUDY    28  27  93 SE5       29.72F WCI  23
AITKIN         CLOUDY    18  10  73 S3        29.72S
PINE RIVER     FLURRIES  18  10  73 SE5       29.75S WCI  11
BRAINERD       FLURRIES  21  13  71 S6        29.72F WCI  13
STAPLES        LGT SNOW  19  16  86 CALM      29.70S
LITTLE FALLS   FLURRIES  23  14  68 CALM      29.73F
LITCHFIELD     CLOUDY    28  27  93 SE6       29.73F WCI  22
BUFFALO        CLOUDY    26  20  80 E3        29.76F
MAPLE LAKE     CLOUDY    26  22  84 SE5       29.75F WCI  21
HUTCHINSON     CLOUDY    29  27  91 E6        29.74F WCI  23
$$
MNZ037-044-045-052-053-160000-
   East Central Minnesota

CITY           SKY/WX    TMP DP  RH WIND       PRES   REMARKS
PRINCETON      CLOUDY    25  18  74 SE5       29.75F WCI  19
MORA           CLOUDY    19  12  73 S3        29.78S
CAMBRIDGE      CLOUDY    23  12  63 CALM      29.77F
RUSH CITY      CLOUDY    20  12  72 CALM      29.78F
MOOSE LAKE     CLOUDY    21  10  63 CALM      29.74R
HINCKLEY       CLOUDY    21  14  73 S6        29.76F WCI  14
CLOQUET        CLOUDY    16   7  67 CALM      29.74R
MCGREGOR       CLOUDY    19  12  73 S5        29.74S WCI  13
$$
MNZ071>073-080-081-089-090-097-098-160000-
   Southwest Minnesota

CITY           SKY/WX    TMP DP  RH WIND       PRES   REMARKS
MONTEVIDEO     CLOUDY    36  28  75 CALM      29.69S
GRANITE FALLS  CLOUDY    37  31  79 SE6       29.71F
CANBY          CLOUDY    37  30  74 CALM      29.69S
MARSHALL       CLOUDY    37  28  70 S7        29.69F
REDWOOD FALLS  CLOUDY    37  30  75 S5        29.71F
OLIVIA         CLOUDY    34  32  93 SE7       29.70F WCI  28
PIPESTONE      CLOUDY    36  25  64 SW7       29.68F
WINDOM           N/A     37  21  52 S6        29.72F
WORTHINGTON    CLOUDY    38  25  59 SW10      29.72F
JACKSON        CLOUDY    37  27  65 SW7       29.73F
SLAYTON        CLOUDY    37  28  70 SW12      29.71F
$$
MNZ065>067-074>077-082>085-091>093-160000-
   South Central Minnesota

CITY           SKY/WX    TMP DP  RH WIND       PRES   REMARKS
MANKATO        CLOUDY    31  29  92 E7        29.75F WCI  24
NEW ULM        CLOUDY    34  28  80 SE3       29.73F
ST JAMES       CLOUDY    37  28  70 S3        29.75F
FAIRMONT       CLOUDY    37  26  64 SW6       29.75F
GLENCOE        CLOUDY    30  28  92 E5        29.74F WCI  25
FARIBAULT      CLOUDY    30  27  86 CALM      29.77S
OWATONNA       PTCLDY    32  28  86 CALM      29.76S
WASECA         PTCLDY    32  30  93 E5        29.77S WCI  27
ALBERT LEA     MOCLDY    34  27  75 CALM      29.76S
$$
MNZ078>079-086>088-094>096-160000-
   Southeast Minnesota

CITY           SKY/WX    TMP DP  RH WIND       PRES   REMARKS
ROCHESTER      CLOUDY    28  27  96 S3        29.77F
RED WING       CLOUDY    28  21  74 CALM      29.79S
STANTON        CLOUDY    30  26  84 E3        29.77S
DODGE CENTER   CLOUDY    28  27  93 CALM      29.77S
WINONA         CLOUDY    32  28  86 CALM      29.82S
AUSTIN         CLOUDY    30  27  86 E3        29.76F
PRESTON        MOCLDY    30  27  88 CALM      29.78F
$$
ABBREVIATIONS USED IN REMARKS
   TC - TEMPERATURES IN CELSIUS
  WCI - WIND CHILL INDEX
   HX - HEAT INDEX
  VSB - VISIBILITY
$$




USA.gov is the U.S. government's official web portal to all federal, state and local government web resources and services.